Location: Newark
(15.4608°S, 41.1635°W)
Time: 21:08:07
(UTC+00:00)

Explorer 11/Cluster Stage 4 - Pass Details

Date: 09 August 2021
Orbit: 467 x 1256 km, 28.8° (Epoch: 24 September)

Event Time Altitude Azimuth Distance (km) Brightness Sun altitude
Rises 20:59:55 0° 254° (WSW) 3,512 11.1 -6.4°
Reaches altitude 10° 21:03:28 10° 237° (WSW) 2,399 9.7 -7.2°
Maximum altitude 21:07:26 19° 192° (SSW) 1,656 8.2 -8.1°
Drops below altitude 10° 21:10:54 10° 146° (SE) 2,036 8.3 -9.0°
Enters shadow 21:11:47 - 138° (SE) 2,266 8.5 -9.2°
